Regional Weather Roundup
Issued by NWS

Home | Current Version | Previous Version | Text Only | Print | Product List | Glossary Off
Versions: 1 2 3 4 5 6 7 8 9 10 11 12 13 14 15 16 17 18 19 20 21 22 23 24 25 26 27 28 29 30 31 32 33 34 35 36 37 38 39 40 41 42 43 44 45 46 47 48 49 50

000
ASUS43 KFSD 231910
RWRSD

WEATHER ROUNDUP FOR SOUTH DAKOTA
NATIONAL WEATHER SERVICE SIOUX FALLS SD
200 PM CDT SAT SEP 23 2017

NOTE: "FAIR" INDICATES FEW OR NO CLOUDS BELOW 12,000 FEET WITH NO
SIGNIFICANT WEATHER AND/OR OBSTRUCTIONS TO VISIBILITY.


SDZ001>005-009-010-012>017-232000-
NORTHWEST AND NORTH CENTRAL SOUTH DAKOTA

CITY           SKY/WX    TMP DP  RH WIND       PRES   REMARKS
BUFFALO          N/A     46  42  86 NE10      30.02F
FAITH            N/A     49  47  93 NE13      30.06R
MOBRIDGE       CLOUDY    57  47  69 N13       30.02R
$$

SDZ012>016-024>037-041>051-057-063-072>074-232000-
SOUTHWEST AND SOUTH CENTRAL SOUTH DAKOTA

CITY           SKY/WX    TMP DP  RH WIND       PRES   REMARKS
RAPID CTY ARPT LGT RAIN  46  43  87 N12       30.06F FOG
PIERRE         CLOUDY    51  48  89 NE13      30.00F
CUSTER         CLOUDY    43  41  93 E10       30.02F FOG
ELLSWORTH AFB  LGT RAIN  46  46 100 N9        30.05
PHILIP         LGT RAIN  49  49 100 N13       30.03F FOG
PINE RIDGE     LGT RAIN  47  46  97 N9        30.02F FOG
SPEARFISH      FAIR      43  43 100 NE6       30.06F
WINNER         LGT RAIN  54  52  93 N9        29.99S FOG
$$

SDZ004>011-016>023-039-040-232000-
NORTHEAST SOUTH DAKOTA

CITY           SKY/WX    TMP DP  RH WIND       PRES   REMARKS
ABERDEEN       CLOUDY    53  51  93 N10       30.04R
WATERTOWN      LGT RAIN  55  55 100 E10       29.95R FOG
BROOKINGS      LGT RAIN  57  57 100 VRB3      29.97F
SISSETON         N/A     54  52  93 N12       30.00R
$$

SDZ017-020-022-023-036>040-048>070-232000-
SOUTHEAST SOUTH DAKOTA

CITY           SKY/WX    TMP DP  RH WIND       PRES   REMARKS
SIOUX FALLS    CLOUDY    74  68  81 SE6       29.95S
HURON          CLOUDY    55  54  96 N16       29.95F
CHAMBERLAIN    CLOUDY    55  55  99 N7        29.98F
MITCHELL       TSTM      58  57  97 NW6       29.96S
YANKTON        MOSUNNY   69  60  73 N9        29.94F
$$

ABBREVIATIONS USED IN REMARKS
   TC - TEMPERATURE IN CELSIUS
  WCI - WIND CHILL INDEX
   HX - HEAT INDEX
  VSB - VISIBILITY





USA.gov is the U.S. government's official web portal to all federal, state and local government web resources and services.